Overview Statistics Trail Chart Weather Telemetry Raw packets
 

This is the latest recevied weather packets stored in our database for station/object Ostrach. If no packets are shown the sender has not sent any weather packets the latest 10 day(s).

<< 10 11 12 13 14 15 16 >>
Time Temp. Humidity Pressure Rain* Wind** Luminosity Snow
1788179535 23.33° C 49% 1014.7 hPa 3.81 mm - - -
1788177731 23.33° C 51% 1014.7 hPa 3.81 mm - - -
1788175931 22.78° C 53% 1014.9 hPa 3.81 mm - - -
1788174130 22.78° C 55% 1015 hPa 3.81 mm - - -
1788172331 22.22° C 55% 1014.8 hPa 3.81 mm - - -
1788170531 21.67° C 60% 1014.9 hPa 3.81 mm - - -
1788168730 21.67° C 62% 1015 hPa 3.81 mm - - -
1788166930 21.11° C 63% 1015 hPa 3.81 mm - - -
1788165130 20° C 67% 1014.8 hPa 3.81 mm - - -
1788163331 19.44° C 77% 1014.7 hPa 3.81 mm - - -
1788161530 17.78° C 81% 1014.3 hPa 3.81 mm - - -
1788159730 17.78° C 85% 1014.2 hPa 3.81 mm - - -
1788157930 16.67° C 89% 1014 hPa 3.81 mm - - -
1788156130 16.11° C 91% 1013.7 hPa 3.81 mm - - -
1788154330 16.11° C 92% 1013.6 hPa 3.81 mm - - -
1788152530 16.11° C 91% 1013.5 hPa 3.81 mm - - -
1788150730 16.11° C 90% 1013.4 hPa 3.81 mm - - -
1788148929 16.67° C 90% 1013.3 hPa 3.81 mm - - -
1788147129 16.11° C 91% 1013.3 hPa 3.81 mm - - -
1788145329 15.56° C 92% 1013.3 hPa 3.81 mm - - -
1788143529 15.56° C 91% 1012.9 hPa 3.81 mm - - -
1788141729 16.11° C 91% 1012.8 hPa 3.81 mm - - -
1788139931 16.11° C 89% 1012.9 hPa 3.81 mm - - -
1788138129 16.67° C 87% 1013.5 hPa 2.29 mm - - -
1788136332 15° C 91% 1011.8 hPa 0 mm - - -

* Rain since midnight (hover to see other rain measurements)
** Current wind speed in m/s (hover to see current wind gust speed)